| time (UTC) | temp F | wind direction | speed MPH | gust MPH | rain 1hr in | rain 24hr in | rain mn in | humidity % | barometer mb |
| 20260502130356 | 48 | 236 | 2.0 | 3.0 | 0.00 | 0.18 | 0.18 | 96 | 1010.9 |
| 20260502123356 | 47 | 253 | 0.0 | 0.0 | 0.00 | 0.18 | 0.18 | 96 | 1011.0 |
| 20260502122856 | 47 | 253 | 0.0 | 0.0 | 0.00 | 0.18 | 0.18 | 96 | 1010.9 |
| 20260502122356 | 47 | 253 | 0.0 | 0.0 | 0.00 | 0.18 | 0.18 | 96 | 1010.8 |
| 20260502121855 | 46 | 253 | 0.0 | 0.0 | 0.00 | 0.18 | 0.18 | 96 | 1010.8 |
| 20260502121355 | 46 | 253 | 0.0 | 0.0 | 0.00 | 0.18 | 0.18 | 97 | 1010.8 |
| 20260502120356 | 46 | 240 | 1.0 | 2.0 | 0.01 | 0.18 | 0.18 | 96 | 1010.8 |
| 20260502115856 | 46 | 230 | 0.0 | 1.0 | 0.01 | 0.18 | 0.18 | 96 | 1010.9 |
| 20260502115355 | 46 | 250 | 1.0 | 2.0 | 0.01 | 0.18 | 0.18 | 97 | 1011.0 |
| 20260502114855 | 46 | 226 | 1.0 | 2.0 | 0.02 | 0.18 | 0.18 | 97 | 1010.9 |
| 20260502114356 | 46 | 237 | 0.0 | 0.0 | 0.03 | 0.18 | 0.18 | 97 | 1010.9 |
| 20260502113856 | 46 | 237 | 0.0 | 0.0 | 0.04 | 0.18 | 0.18 | 97 | 1010.9 |
| 20260502113356 | 45 | 237 | 0.0 | 1.0 | 0.05 | 0.18 | 0.18 | 96 | 1010.9 |
| 20260502112856 | 45 | 311 | 0.0 | 0.0 | 0.08 | 0.18 | 0.18 | 97 | 1010.8 |
| 20260502112356 | 45 | 311 | 0.0 | 0.0 | 0.10 | 0.18 | 0.18 | 97 | 1010.8 |
| 20260502111856 | 45 | 311 | 0.0 | 0.0 | 0.10 | 0.18 | 0.18 | 97 | 1010.8 |
| 20260502111356 | 45 | 311 | 0.0 | 0.0 | 0.10 | 0.18 | 0.18 | 96 | 1010.8 |
| 20260502110856 | 45 | 311 | 0.0 | 0.0 | 0.10 | 0.18 | 0.18 | 96 | 1010.7 |
| 20260502110356 | 45 | 311 | 0.0 | 0.0 | 0.09 | 0.17 | 0.17 | 96 | 1010.9 |
| 20260502105856 | 45 | 311 | 0.0 | 2.0 | 0.09 | 0.17 | 0.17 | 96 | 1011.0 |
| 20260502105356 | 45 | 248 | 0.0 | 2.0 | 0.09 | 0.17 | 0.17 | 96 | 1011.0 |
| 20260502104857 | 45 | 250 | 0.0 | 0.0 | 0.09 | 0.16 | 0.16 | 96 | 1011.1 |
| 20260502104356 | 45 | 250 | 0.0 | 1.0 | 0.09 | 0.15 | 0.15 | 96 | 1011.1 |
| 20260502103856 | 45 | 192 | 0.0 | 0.0 | 0.10 | 0.14 | 0.14 | 96 | 1011.1 |
| 20260502103356 | 45 | 192 | 0.0 | 1.0 | 0.10 | 0.13 | 0.13 | 96 | 1011.0 |
| 20260502102856 | 45 | 215 | 0.0 | 0.0 | 0.07 | 0.10 | 0.10 | 96 | 1010.8 |
| 20260502101856 | 45 | 215 | 0.0 | 0.0 | 0.05 | 0.08 | 0.08 | 96 | 1010.5 |
| 20260502101356 | 45 | 215 | 0.0 | 0.0 | 0.05 | 0.08 | 0.08 | 96 | 1010.3 |
| 20260502100856 | 45 | 215 | 0.0 | 0.0 | 0.05 | 0.08 | 0.08 | 96 | 1010.3 |
| 20260502091356 | 45 | 109 | 0.0 | 0.0 | 0.00 | 0.03 | 0.03 | 96 | 1010.1 |
| 20260502090857 | 45 | 109 | 0.0 | 1.0 | 0.00 | 0.03 | 0.03 | 96 | 1010.1 |
| 20260502090356 | 45 | 217 | 0.0 | 0.0 | 0.00 | 0.03 | 0.03 | 95 | 1010.2 |
| 20260502070857 | 46 | 298 | 1.0 | 3.0 | 0.01 | 0.01 | 0.01 | 92 | 1009.9 |
| 20260502070357 | 46 | 271 | 0.0 | 0.0 | 0.01 | 0.01 | 0.01 | 91 | 1009.9 |
| 20260502065857 | 46 | 271 | 0.0 | 0.0 | 0.01 | 0.01 | 0.01 | 92 | 1010.0 |
| 20260502065357 | 46 | 278 | 1.0 | 2.0 | 0.01 | 0.01 | 0.01 | 92 | 1010.1 |
| 20260502064856 | 47 | 284 | 0.0 | 2.0 | 0.01 | 0.01 | 0.01 | 91 | 1010.2 |
| 20260502064357 | 47 | 254 | 2.0 | 3.0 | 0.01 | 0.01 | 0.01 | 91 | 1010.3 |
| 20260502063856 | 47 | 255 | 2.0 | 2.0 | 0.00 | 0.00 | 0.00 | 90 | 1010.3 |
| 20260502063356 | 47 | 292 | 1.0 | 2.0 | 0.00 | 0.00 | 0.00 | 90 | 1010.1 |
| 20260502062856 | 47 | 331 | 1.0 | 2.0 | 0.00 | 0.00 | 0.00 | 90 | 1010.1 |
| 20260502062356 | 47 | 21 | 2.0 | 2.0 | 0.00 | 0.00 | 0.00 | 88 | 1010.2 |
| 20260502061856 | 47 | 191 | 0.0 | 1.0 | 0.00 | 0.00 | 0.00 | 88 | 1010.5 |
| 20260502061357 | 47 | 288 | 2.0 | 2.0 | 0.00 | 0.00 | 0.00 | 89 | 1010.7 |
| 20260502060856 | 47 | 265 | 1.0 | 2.0 | 0.00 | 0.00 | 0.00 | 88 | 1010.4 |
| 20260502055857 | 47 | 188 | 1.0 | 1.0 | 0.00 | 0.00 | 0.00 | 87 | 1010.1 |
| 20260502054856 | 48 | 237 | 0.0 | 2.0 | 0.00 | 0.00 | 0.00 | 86 | 1010.1 |
| 20260502054356 | 48 | 244 | 0.0 | 0.0 | 0.00 | 0.00 | 0.00 | 85 | 1010.2 |
| 20260502053857 | 48 | 244 | 0.0 | 0.0 | 0.00 | 0.00 | 0.00 | 85 | 1010.1 |
| 20260502052856 | 49 | 244 | 0.0 | 0.0 | 0.00 | 0.00 | 0.00 | 83 | 1010.0 |
| 20260502052356 | 49 | 244 | 0.0 | 0.0 | 0.00 | 0.00 | 0.00 | 82 | 1010.0 |
| 20260502051356 | 49 | 263 | 0.0 | 2.0 | 0.00 | 0.00 | 0.00 | 76 | 1010.2 |
| 20260502050856 | 49 | 305 | 1.0 | 3.0 | 0.00 | 0.00 | 0.00 | 77 | 1010.4 |
| 20260502045356 | 49 | 279 | 2.0 | 2.0 | 0.00 | 0.00 | 0.00 | 76 | 1010.8 |
| 20260502044856 | 49 | 192 | 0.0 | 2.0 | 0.00 | 0.00 | 0.00 | 75 | 1010.8 |
| 20260502044356 | 49 | 248 | 2.0 | 2.0 | 0.00 | 0.00 | 0.00 | 75 | 1010.8 |
| 20260502043857 | 49 | 273 | 2.0 | 3.0 | 0.00 | 0.00 | 0.00 | 76 | 1010.7 |
| 20260502042856 | 49 | 282 | 2.0 | 5.0 | 0.00 | 0.00 | 0.00 | 74 | 1010.7 |
| 20260502042356 | 49 | 259 | 3.0 | 5.0 | 0.00 | 0.00 | 0.00 | 74 | 1010.4 |
| 20260502041857 | 49 | 255 | 2.0 | 3.0 | 0.00 | 0.00 | 0.00 | 72 | 1010.3 |
| 20260502041357 | 49 | 174 | 0.0 | 0.0 | 0.00 | 0.00 | 0.00 | 71 | 1010.2 |
| 20260502040857 | 49 | 174 | 0.0 | 0.0 | 0.00 | 0.00 | 0.00 | 70 | 1010.2 |
| 20260502040357 | 49 | 174 | 0.0 | 0.0 | 0.00 | 0.00 | 0.00 | 70 | 1010.3 |
| 20260502035856 | 49 | 174 | 0.0 | 0.0 | 0.00 | 0.00 | 0.00 | 70 | 1010.3 |
| 20260502035356 | 49 | 174 | 0.0 | 0.0 | 0.00 | 0.00 | 0.00 | 70 | 1010.2 |
| 20260502034857 | 49 | 174 | 0.0 | 0.0 | 0.00 | 0.00 | 0.00 | 67 | 1010.3 |
| 20260502034359 | 49 | 174 | 0.0 | 0.0 | 0.00 | 0.00 | 0.00 | 68 | 1010.3 |
| 20260502033857 | 49 | 174 | 0.0 | 0.0 | 0.00 | 0.00 | 0.00 | 68 | 1010.3 |
| 20260502033356 | 49 | 174 | 0.0 | 0.0 | 0.00 | 0.00 | 0.00 | 68 | 1010.3 |
| 20260502032856 | 49 | 174 | 0.0 | 0.0 | 0.00 | 0.00 | 0.00 | 66 | 1010.3 |
| 20260502032356 | 49 | 174 | 0.0 | 0.0 | 0.00 | 0.00 | 0.00 | 68 | 1010.3 |
| 20260502031856 | 49 | 174 | 0.0 | 0.0 | 0.00 | 0.00 | 0.00 | 67 | 1010.4 |
| 20260502031356 | 48 | 174 | 0.0 | 0.0 | 0.00 | 0.00 | 0.00 | 65 | 1010.4 |
| 20260502030857 | 48 | 174 | 0.0 | 0.0 | 0.00 | 0.00 | 0.00 | 69 | 1010.6 |
| 20260502030356 | 48 | 174 | 0.0 | 0.0 | 0.00 | 0.00 | 0.00 | 68 | 1010.5 |
| 20260502025857 | 48 | 174 | 0.0 | 0.0 | 0.00 | 0.00 | 0.00 | 67 | 1010.7 |
| 20260502025357 | 49 | 174 | 0.0 | 0.0 | 0.00 | 0.00 | 0.00 | 68 | 1010.5 |
| 20260502024856 | 49 | 174 | 0.0 | 0.0 | 0.00 | 0.00 | 0.00 | 67 | 1010.5 |
| 20260502023856 | 49 | 174 | 0.0 | 0.0 | 0.00 | 0.00 | 0.00 | 64 | 1010.4 |
| 20260502023356 | 50 | 188 | 1.0 | 1.0 | 0.00 | 0.00 | 0.00 | 64 | 1010.4 |
| 20260502022857 | 50 | 243 | 1.0 | 1.0 | 0.00 | 0.00 | 0.00 | 64 | 1010.5 |
| 20260502022356 | 50 | 243 | 1.0 | 2.0 | 0.00 | 0.00 | 0.00 | 62 | 1010.5 |
| 20260502021856 | 50 | 229 | 1.0 | 1.0 | 0.00 | 0.00 | 0.00 | 62 | 1010.4 |
| 20260502021357 | 50 | 259 | 2.0 | 2.0 | 0.00 | 0.00 | 0.00 | 62 | 1010.3 |
| 20260502020856 | 50 | 286 | 1.0 | 2.0 | 0.00 | 0.00 | 0.00 | 61 | 1010.4 |
| 20260502020356 | 50 | 285 | 2.0 | 3.0 | 0.00 | 0.00 | 0.00 | 61 | 1010.5 |
| 20260502015400 | 50 | 294 | 3.0 | 7.0 | 0.00 | 0.00 | 0.00 | 63 | 1010.4 |
| 20260502013856 | 51 | 309 | 2.0 | 6.0 | 0.00 | 0.00 | 0.00 | 61 | 1010.3 |
| 20260502012856 | 51 | 310 | 2.0 | 3.0 | 0.00 | 0.00 | 0.00 | 62 | 1010.2 |
| 20260502011857 | 51 | 288 | 2.0 | 3.0 | 0.00 | 0.00 | 0.00 | 59 | 1010.1 |
| 20260502011356 | 52 | 302 | 2.0 | 3.0 | 0.00 | 0.00 | 0.00 | 60 | 1010.0 |
| 20260502010856 | 52 | 300 | 2.0 | 3.0 | 0.00 | 0.00 | 0.00 | 59 | 1009.9 |
| 20260502010357 | 52 | 292 | 2.0 | 3.0 | 0.00 | 0.00 | 0.00 | 58 | 1009.9 |
| 20260502005857 | 52 | 309 | 3.0 | 5.0 | 0.00 | 0.00 | 0.00 | 59 | 1009.8 |
| 20260502005356 | 52 | 317 | 3.0 | 3.0 | 0.00 | 0.00 | 0.00 | 59 | 1009.8 |
| 20260502004857 | 53 | 346 | 0.0 | 0.0 | 0.00 | 0.00 | 0.00 | 58 | 1009.8 |
| 20260502003856 | 53 | 346 | 0.0 | 0.0 | 0.00 | 0.00 | 0.00 | 59 | 1009.7 |
| 20260502003357 | 53 | 346 | 0.0 | 2.0 | 0.00 | 0.00 | 0.00 | 56 | 1009.6 |
| 20260502002857 | 54 | 319 | 2.0 | 3.0 | 0.00 | 0.00 | 0.00 | 54 | 1009.6 |
| 20260502002356 | 54 | 282 | 0.0 | 0.0 | 0.00 | 0.00 | 0.00 | 52 | 1009.5 |
| 20260502001857 | 54 | 282 | 0.0 | 0.0 | 0.00 | 0.00 | 0.00 | 52 | 1009.4 |
| 20260502001357 | 54 | 282 | 0.0 | 0.0 | 0.00 | 0.00 | 0.00 | 51 | 1009.4 |
| 20260502000857 | 54 | 282 | 0.0 | 0.0 | 0.00 | 0.00 | 0.00 | 51 | 1009.3 |
| 20260502000357 | 54 | 282 | 0.0 | 0.0 | 0.00 | 0.00 | 0.00 | 50 | 1009.2 |
| 20260501235857 | 54 | 282 | 0.0 | 0.0 | 0.00 | 0.00 | 0.00 | 50 | 1009.2 |
| 20260501235357 | 55 | 282 | 0.0 | 0.0 | 0.00 | 0.00 | 0.00 | 50 | 1009.1 |
| 20260501234857 | 55 | 282 | 0.0 | 1.0 | 0.00 | 0.00 | 0.00 | 50 | 1009.1 |
| 20260501234357 | 55 | 252 | 1.0 | 2.0 | 0.00 | 0.00 | 0.00 | 52 | 1009.0 |
| 20260501233357 | 55 | 263 | 2.0 | 3.0 | 0.00 | 0.00 | 0.00 | 51 | 1008.9 |
| 20260501232857 | 55 | 289 | 2.0 | 2.0 | 0.00 | 0.00 | 0.00 | 49 | 1008.8 |
| 20260501232357 | 56 | 274 | 0.0 | 2.0 | 0.00 | 0.00 | 0.00 | 50 | 1008.7 |
| 20260501231857 | 56 | 281 | 1.0 | 2.0 | 0.00 | 0.00 | 0.00 | 47 | 1008.8 |
| 20260501230856 | 56 | 203 | 0.0 | 1.0 | 0.00 | 0.00 | 0.00 | 47 | 1008.6 |
| 20260501225856 | 56 | 322 | 2.0 | 6.0 | 0.00 | 0.00 | 0.00 | 45 | 1008.5 |
| 20260501225357 | 57 | 253 | 1.0 | 3.0 | 0.00 | 0.00 | 0.00 | 48 | 1008.5 |
| 20260501224857 | 57 | 302 | 1.0 | 2.0 | 0.00 | 0.00 | 0.00 | 45 | 1008.5 |
| 20260501224356 | 57 | 303 | 2.0 | 5.0 | 0.00 | 0.00 | 0.00 | 45 | 1008.5 |
| 20260501222857 | 58 | 275 | 5.0 | 8.0 | 0.00 | 0.00 | 0.00 | 44 | 1008.5 |
| 20260501222357 | 58 | 286 | 3.0 | 5.0 | 0.00 | 0.00 | 0.00 | 44 | 1008.5 |
| 20260501221857 | 58 | 293 | 4.0 | 7.0 | 0.00 | 0.00 | 0.00 | 44 | 1008.5 |
| 20260501221357 | 59 | 252 | 5.0 | 10.0 | 0.00 | 0.00 | 0.00 | 42 | 1008.5 |
| 20260501215856 | 60 | 292 | 6.0 | 10.0 | 0.00 | 0.00 | 0.00 | 40 | 1008.5 |
| 20260501215356 | 60 | 303 | 6.0 | 9.0 | 0.00 | 0.00 | 0.00 | 40 | 1008.5 |
| 20260501214357 | 59 | 284 | 4.0 | 13.0 | 0.00 | 0.00 | 0.00 | 41 | 1008.6 |
| 20260501213856 | 60 | 291 | 6.0 | 10.0 | 0.00 | 0.00 | 0.00 | 39 | 1008.6 |
| 20260501213356 | 60 | 278 | 3.0 | 5.0 | 0.00 | 0.00 | 0.00 | 41 | 1008.6 |
| 20260501212857 | 60 | 321 | 4.0 | 9.0 | 0.00 | 0.00 | 0.00 | 40 | 1008.6 |
| 20260501212357 | 60 | 269 | 4.0 | 7.0 | 0.00 | 0.00 | 0.00 | 43 | 1008.7 |
| 20260501211857 | 60 | 278 | 5.0 | 9.0 | 0.00 | 0.00 | 0.00 | 40 | 1008.6 |
| 20260501211357 | 60 | 269 | 4.0 | 6.0 | 0.00 | 0.00 | 0.00 | 41 | 1008.8 |
| 20260501210857 | 60 | 275 | 6.0 | 8.0 | 0.00 | 0.00 | 0.00 | 44 | 1008.8 |
| 20260501210357 | 60 | 279 | 5.0 | 10.0 | 0.00 | 0.00 | 0.00 | 44 | 1008.7 |
| 20260501205856 | 60 | 273 | 7.0 | 9.0 | 0.00 | 0.00 | 0.00 | 41 | 1008.8 |
| 20260501205356 | 60 | 289 | 6.0 | 14.0 | 0.00 | 0.00 | 0.00 | 41 | 1008.7 |
| 20260501204857 | 60 | 299 | 4.0 | 8.0 | 0.00 | 0.00 | 0.00 | 41 | 1008.7 |
| 20260501204357 | 60 | 261 | 3.0 | 9.0 | 0.00 | 0.00 | 0.00 | 39 | 1008.6 |
| 20260501203857 | 60 | 310 | 2.0 | 8.0 | 0.00 | 0.00 | 0.00 | 41 | 1008.6 |
| 20260501203357 | 60 | 18 | 3.0 | 7.0 | 0.00 | 0.00 | 0.00 | 42 | 1008.6 |
| 20260501202857 | 60 | 265 | 5.0 | 8.0 | 0.00 | 0.00 | 0.00 | 44 | 1008.7 |
| 20260501202356 | 60 | 304 | 3.0 | 5.0 | 0.00 | 0.00 | 0.00 | 42 | 1008.8 |
| 20260501201857 | 61 | 315 | 6.0 | 9.0 | 0.00 | 0.00 | 0.00 | 40 | 1008.9 |
| 20260501201356 | 61 | 287 | 5.0 | 10.0 | 0.00 | 0.00 | 0.00 | 42 | 1008.8 |
| 20260501200856 | 60 | 255 | 3.0 | 10.0 | 0.00 | 0.00 | 0.00 | 43 | 1008.7 |
| 20260501200356 | 60 | 270 | 5.0 | 9.0 | 0.00 | 0.00 | 0.00 | 43 | 1008.8 |
| 20260501195857 | 60 | 260 | 5.0 | 12.0 | 0.00 | 0.00 | 0.00 | 43 | 1008.9 |
| 20260501195356 | 60 | 323 | 5.0 | 8.0 | 0.00 | 0.00 | 0.00 | 43 | 1008.9 |
| 20260501194857 | 59 | 235 | 4.0 | 7.0 | 0.00 | 0.00 | 0.00 | 45 | 1008.8 |
| 20260501194400 | 59 | 293 | 6.0 | 13.0 | 0.00 | 0.00 | 0.00 | 44 | 1009.0 |
| 20260501193357 | 58 | 5 | 3.0 | 5.0 | 0.00 | 0.00 | 0.00 | 45 | 1009.0 |
| 20260501192357 | 59 | 320 | 5.0 | 8.0 | 0.00 | 0.00 | 0.00 | 47 | 1009.1 |
| 20260501191857 | 59 | 320 | 3.0 | 7.0 | 0.00 | 0.00 | 0.00 | 43 | 1009.1 |
| 20260501191357 | 59 | 295 | 6.0 | 17.0 | 0.00 | 0.00 | 0.00 | 43 | 1009.2 |
| 20260501190857 | 59 | 303 | 4.0 | 8.0 | 0.00 | 0.00 | 0.00 | 46 | 1009.1 |
| 20260501190357 | 58 | 267 | 5.0 | 8.0 | 0.00 | 0.00 | 0.00 | 49 | 1009.2 |
| 20260501185856 | 58 | 299 | 7.0 | 12.0 | 0.00 | 0.00 | 0.00 | 44 | 1009.3 |
| 20260501185357 | 58 | 296 | 5.0 | 8.0 | 0.00 | 0.00 | 0.00 | 49 | 1009.4 |
| 20260501184857 | 58 | 311 | 7.0 | 12.0 | 0.00 | 0.00 | 0.00 | 45 | 1009.5 |
| 20260501184356 | 58 | 17 | 5.0 | 9.0 | 0.00 | 0.00 | 0.00 | 44 | 1009.6 |
| 20260501183857 | 58 | 268 | 4.0 | 10.0 | 0.00 | 0.00 | 0.00 | 47 | 1009.6 |
| 20260501183357 | 58 | 305 | 5.0 | 9.0 | 0.00 | 0.00 | 0.00 | 43 | 1009.7 |
| 20260501182857 | 58 | 285 | 6.0 | 12.0 | 0.00 | 0.00 | 0.00 | 48 | 1009.7 |
| 20260501182357 | 57 | 321 | 5.0 | 10.0 | 0.00 | 0.00 | 0.00 | 47 | 1009.8 |
| 20260501181857 | 57 | 323 | 6.0 | 9.0 | 0.00 | 0.00 | 0.00 | 46 | 1009.8 |
| 20260501181357 | 57 | 301 | 5.0 | 9.0 | 0.00 | 0.00 | 0.00 | 45 | 1009.8 |
| 20260501180357 | 57 | 24 | 5.0 | 10.0 | 0.00 | 0.00 | 0.00 | 45 | 1009.8 |
| 20260501175857 | 57 | 272 | 6.0 | 12.0 | 0.00 | 0.00 | 0.00 | 45 | 1009.9 |
| 20260501174858 | 56 | 306 | 6.0 | 12.0 | 0.00 | 0.00 | 0.00 | 47 | 1010.0 |
| 20260501174357 | 56 | 8 | 2.0 | 12.0 | 0.00 | 0.00 | 0.00 | 47 | 1010.0 |
| 20260501173357 | 56 | 287 | 6.0 | 9.0 | 0.00 | 0.00 | 0.00 | 46 | 1010.1 |
| 20260501172857 | 57 | 284 | 7.0 | 10.0 | 0.00 | 0.00 | 0.00 | 50 | 1009.9 |
| 20260501171857 | 57 | 309 | 5.0 | 9.0 | 0.00 | 0.00 | 0.00 | 45 | 1010.0 |
| 20260501170857 | 56 | 310 | 5.0 | 15.0 | 0.00 | 0.00 | 0.00 | 46 | 1010.1 |
| 20260501170357 | 57 | 326 | 9.0 | 14.0 | 0.00 | 0.00 | 0.00 | 46 | 1010.2 |
| 20260501165857 | 57 | 298 | 5.0 | 13.0 | 0.00 | 0.00 | 0.00 | 47 | 1010.1 |
| 20260501165356 | 57 | 294 | 6.0 | 10.0 | 0.00 | 0.00 | 0.00 | 45 | 1010.2 |
| 20260501164857 | 57 | 295 | 9.0 | 14.0 | 0.00 | 0.00 | 0.00 | 46 | 1010.1 |
| 20260501164357 | 57 | 307 | 8.0 | 14.0 | 0.00 | 0.00 | 0.00 | 48 | 1010.1 |
| 20260501163857 | 57 | 343 | 6.0 | 12.0 | 0.00 | 0.00 | 0.00 | 45 | 1010.2 |
| 20260501163357 | 56 | 25 | 4.0 | 13.0 | 0.00 | 0.00 | 0.00 | 46 | 1010.2 |
| 20260501162857 | 56 | 326 | 6.0 | 13.0 | 0.00 | 0.01 | 0.00 | 50 | 1010.3 |
| 20260501162357 | 56 | 315 | 5.0 | 10.0 | 0.00 | 0.02 | 0.00 | 47 | 1010.3 |
| 20260501161857 | 56 | 270 | 6.0 | 10.0 | 0.00 | 0.02 | 0.00 | 48 | 1010.3 |
| 20260501161358 | 56 | 310 | 7.0 | 14.0 | 0.00 | 0.02 | 0.00 | 51 | 1010.3 |
| 20260501160857 | 56 | 307 | 7.0 | 15.0 | 0.00 | 0.02 | 0.00 | 46 | 1010.4 |
| 20260501160357 | 56 | 324 | 6.0 | 10.0 | 0.00 | 0.02 | 0.00 | 56 | 1010.5 |
| 20260501155857 | 56 | 266 | 6.0 | 9.0 | 0.00 | 0.02 | 0.00 | 51 | 1010.5 |
| 20260501154357 | 55 | 314 | 7.0 | 10.0 | 0.00 | 0.03 | 0.00 | 51 | 1010.8 |
| 20260501153357 | 54 | 332 | 6.0 | 13.0 | 0.00 | 0.03 | 0.00 | 49 | 1010.9 |
| 20260501152857 | 54 | 295 | 6.0 | 10.0 | 0.00 | 0.03 | 0.00 | 49 | 1010.9 |
| 20260501152357 | 54 | 307 | 9.0 | 15.0 | 0.00 | 0.03 | 0.00 | 56 | 1010.8 |
| 20260501151857 | 54 | 319 | 5.0 | 12.0 | 0.00 | 0.03 | 0.00 | 54 | 1010.9 |
| 20260501150857 | 54 | 291 | 4.0 | 9.0 | 0.00 | 0.03 | 0.00 | 58 | 1011.0 |
| 20260501150357 | 54 | 306 | 8.0 | 10.0 | 0.00 | 0.03 | 0.00 | 56 | 1010.9 |
| 20260501145857 | 54 | 306 | 6.0 | 13.0 | 0.00 | 0.04 | 0.00 | 55 | 1010.9 |
| 20260501145357 | 53 | 294 | 5.0 | 9.0 | 0.00 | 0.04 | 0.00 | 58 | 1011.0 |
| 20260501144357 | 53 | 288 | 6.0 | 15.0 | 0.00 | 0.04 | 0.00 | 59 | 1010.9 |
| 20260501143357 | 52 | 317 | 6.0 | 12.0 | 0.00 | 0.04 | 0.00 | 58 | 1011.0 |
| 20260501142857 | 52 | 348 | 5.0 | 14.0 | 0.00 | 0.04 | 0.00 | 57 | 1010.9 |
| 20260501142406 | 52 | 321 | 4.0 | 9.0 | 0.00 | 0.04 | 0.00 | 60 | 1010.9 |
| 20260501141857 | 52 | 318 | 6.0 | 15.0 | 0.00 | 0.04 | 0.00 | 62 | 1011.0 |
| 20260501141357 | 51 | 298 | 7.0 | 12.0 | 0.00 | 0.04 | 0.00 | 60 | 1011.0 |
| 20260501140857 | 51 | 42 | 5.0 | 9.0 | 0.00 | 0.04 | 0.00 | 63 | 1010.9 |
| 20260501135857 | 50 | 316 | 6.0 | 10.0 | 0.00 | 0.04 | 0.00 | 61 | 1011.0 |
| 20260501135357 | 50 | 272 | 5.0 | 7.0 | 0.00 | 0.04 | 0.00 | 64 | 1010.9 |